Regional Weather Roundup
Issued by NWS Upton, NY

Current Version | Previous Version | Graphics & Text | Print | Product List | Glossary Off
Versions: 1 2 3 4 5 6 7 8 9 10 11 12 13 14 15 16 17 18 19 20 21 22 23 24 25 26 27 28 29 30 31 32 33 34 35 36 37 38 39 40 41 42 43 44 45 46 47 48 49 50

757
ASUS41 KOKX 230307
RWROKX

REGIONAL WEATHER ROUNDUP
NATIONAL WEATHER SERVICE NEW YORK NY
1100 PM EDT WED MAR 22 2017

NOTE: "FAIR" INDICATES FEW OR NO CLOUDS BELOW 12,000 FEET WITH NO
SIGNIFICANT WEATHER AND/OR OBSTRUCTIONS TO VISIBILITY.

NYZ071-072-176-178-NJZ106-104-230400-
NEW YORK CITY METRO AREA

CITY           SKY/WX    TMP DP  RH WIND       PRES   REMARKS
Central Park   CLEAR     25  -1  32 NW10G20   30.45R WCI  15
Wall St Helipt CLEAR     28   3  34 VRB5      30.45R WCI  23
LaGuardia APRT CLEAR     28   0  29 NW23G30   30.43R WCI  14
Kennedy INTL   CLEAR     26  -6  24 NW22      30.44R WCI  12
Breezy Point     N/A    N/A N/A N/A NW16G23     N/A
Newark/Liberty CLEAR     26  -2  29 NW15G28   30.45R WCI  14
Teterboro      CLEAR     26   1  34 N16G26    30.44R WCI  14
$$

NYZ177-179-078>081-230400-
LONG ISLAND NEW YORK

CITY           SKY/WX    TMP DP  RH WIND       PRES   REMARKS
Jones Beach      N/A    N/A N/A N/A N24         N/A
Matinecock PT    N/A    N/A N/A N/A NW20        N/A
Farmingdale    CLEAR     25  -5  26 NW12G21   30.41R WCI  14
MacArthur/ISP  CLEAR     24  -4  29 NW22G31   30.38R WCI   9
Shirley        CLEAR     23  -6  28 N17G25    30.40R WCI   9
Westhampton    CLEAR     23  -6  28 NW14G29   30.39R WCI  11
East Hampton     N/A     23  -4  30 NW16G22   30.35R WCI  10
Montauk          N/A     26  -3  28 NW16G30   30.35R WCI  14
$$

NYZ052-065-067-230400-
HUDSON VALLEY

CITY           SKY/WX    TMP DP  RH WIND       PRES   REMARKS
White Plains   CLEAR     22  -3  33 NW15      30.38R WCI   9
Newburgh       CLEAR     19   1  45 NW14      30.42R WCI   6
Montgomery     CLEAR     21  -1  38 NW9G21    30.42R WCI  11
Poughkeepsie   PTCLDY    20  -3  36 NW10      30.42R WCI   9
Albany         CLEAR     19  -4  36 NW8       30.44R WCI   9
$$

NJZ001-105-106-008-010-013-015-019>022-104-230400-
NEW JERSEY

CITY           SKY/WX    TMP DP  RH WIND       PRES   REMARKS
Newark/Liberty CLEAR     26  -2  29 NW15G28   30.45R WCI  14
Teterboro      CLEAR     26   1  34 N16G26    30.44R WCI  14
Caldwell       CLEAR     24   0  35 NW13G24   30.45R WCI  12
Somerville     CLEAR     24   0  35 NW10      30.45R WCI  14
Linden           N/A     26  -2  30 N7        30.47R WCI  18
Sussex         CLEAR     21   1  41 NW12G21   30.43R WCI   9
Andover          N/A     20   0  41 MISG      30.44R
Trenton        CLEAR     25   0  33 N7        30.47R WCI  17
Millville      CLEAR     29   3  33 N10       30.46R WCI  20
Atlantic City  CLEAR     28  -2  27 N13       30.45R WCI  17
Wrightstown    CLEAR     26  -2  29 NW18      30.44R WCI  13
Toms River     CLEAR     26   1  34 NW9G18    30.46R WCI  17
Belmar         CLEAR     25   2  37 NW17      30.45R WCI  12
$$

PAZ047>061-062-071-230400-
EASTERN PENNSYLVANIA

CITY           SKY/WX    TMP DP  RH WIND       PRES   REMARKS
Philadelphia   CLEAR     30  -7  20 N17G29    30.49R WCI  18
Allentown      CLEAR     24   1  36 NW7       30.48R WCI  16
Scranton       CLEAR     19   4  51 VRB3      30.45R
$$

CTZ002-004>006-009-010-012-RIZ004-006-007-MAZ004-011-015-230400-
SOUTHERN NEW ENGLAND
 IN CT

CITY           SKY/WX    TMP DP  RH WIND       PRES   REMARKS
Bradley INTL   CLEAR     21  -5  31 NW15G23   30.36R WCI   8
Hartford       CLEAR     22  -4  32 NW10      30.38R WCI  11
Danbury        CLEAR     20  -4  34 NW6       30.39R WCI  12
Wtrbury/Oxford CLEAR     19  -6  32 NW12G18   30.35R WCI   7
Bridgeport     CLEAR     25  -6  25 NW15G25   30.39R WCI  13
Meriden        CLEAR     23  -5  29 NW12      30.37R WCI  12
New Haven      CLEAR     23  -4  30 NW10G20   30.38R WCI  12
Chester          N/A     21  -8  27 NW17G24   30.32S WCI   7
Groton         CLEAR     24  -9  23 NW10      30.33R WCI  14
Wilimantic     CLEAR     23  -9  24 NW13      30.33R WCI  11

 IN RI

CITY           SKY/WX    TMP DP  RH WIND       PRES   REMARKS
Providence     CLEAR     22  -9  25 N15G33    30.31R WCI   9
Block Island   CLEAR     24  -3  30 NW17G26   30.31R WCI  11
Westerly       CLEAR     24  -9  23 NW10G24   30.33R WCI  14
 IN MA

CITY           SKY/WX    TMP DP  RH WIND       PRES   REMARKS
Boston         CLEAR     19  -6  33 NW26G33   30.31R WCI   1
Worcester      CLEAR     15  -9  33 NW15      30.25R WCI   0
Westfield      CLEAR     20  -7  30 NW9       30.35R WCI   9
Provincetown   CLEAR     21   5  50 NW30G45   30.26R WCI   3
Nantucket      CLEAR     23   0  36 NW25G38   30.23R WCI   7
$$

ANZ330-335-338-340-345-350-353-355-230400-
COASTAL MARINE OBSERVATIONS


STATION/POSITION TIME  SKY/WX   TEMP    WIND        PRES    VSBY  WAVE
                                AIR SEA DIR/SP/G                  HT/PER
                 (UTC)          (F)     (DEG/KT/KT) (MB)    (MI)  (FT/S)
NY HARB ENTRANCE 0150            30 41  320/ 25/ 31 1028.8          5/ 5
20 S FIRE ISLAND 0250            29 41  340/ 23/ 29 1028.8          6/ 6
GREAT SOUTH BAY  NOT AVBL
23 SSW MONTAUK P 0150            28 42              1026.6          7/ 5
15 E BARNEGAT LI 0230               42                N/A           6/ 6
HUDSON CANYON    0150            34 45  330/ 25/ 33 1027.0         10/ 8
KINGS POINT      0248            26 38              1030.3
EXECUTION ROCKS  NOT AVBL
CENTRAL LI SOUND 0215            26     310/ 21/ 27   N/A           4/ 4
EASTERN LI SOUND NOT AVBL
ROBBINS REEF     0248            26     330/ 11/ 16 1031.1
$$


>>>>>>>>>>>>>>>>>>>>>>>>>>>> KEY <<<<<<<<<<<<<<<<<<<<<<<<<<<
>                                                          <
>     SKY/WX - Sky Condition/Present Weather               <
>     TMP    - Temperature in Fahrenheit                   <
>     DP     - Dew Point in Fahrenheit                     <
>     RH     - Relative Humidity in Percent                <
>     WIND   - Direction (from) and Speed in MPH           <
>     PRES   - Mean Sea Level Pressure (inches of Hg)      <
>     WCI    - Wind Chill Index                            <
>     VSB    - VISIBILITY IN MILES                         <
>     HX     - HEAT INDEX                                  <
>     TC     - TEMPERATURE IN CELSIUS                      <
>     VRB    - VARIABLE WIND DIRECTION                     <
>                                                          <
>>>>>>>>>>>>>>>>>>>>>>>>>>>> KEY <<<<<<<<<<<<<<<<<<<<<<<<<<<




USA.gov is the U.S. government's official web portal to all federal, state and local government web resources and services.